STARLINK-31115, 58729

Orbit data source: Space-Track

STARLINK-31115, 58729 is a payload satellite owned by SpaceX/Seattle (US) in LEO that was launched on Sun, 07 Jan 2024 UTC via an FALCON 9 launch vehicle from the Air Force Eastern Test Range (AFETR). Payload-class satellites include a variety of spacecraft equipped with specific instruments for various scientific and technological missions. These include communications satellites like Starlink; space stations such as the ISS; scientific satellites like the Hubble; Earth observation satellites from companies like Planet Labs, Umbra, and HawkEye 360; GPS; miniature CubeSats for education and research; and military/defense satellites.

Loading next visibility...
Identifier
58729, 2024-005B
Orbit
LEO
Country
Flag of USUS
Related business
Manufacturer
SpaceX/Seattle
Mission
Operational Commercial Communications
Bus & Motor
STARLINK V2M, Unknown motor
Mass
730 kg wet, ~700 kg dry
Launch date (UTC)
2024-01-07 (2 years ago)
Launch vehicle
FALCON 9
Launch site
Air Force Eastern Test Range (AFETR)
Object type
Payload
Rocket body
Debris
Shape & HBR
Box + 2 Pan, 17.7 m
Radar Cross Section
33.884 m², Large (>1 m²)

Expand to show TLE details & history
Last TLE update: 3 days ago

TLE from 3 days ago
0 STARLINK-31115
1 58729U 24005B   26170.59279711 -.00000108  00000-0  56092-5 0  9996
2 58729  43.0041   4.6597 0001111 275.8975  84.1750 15.27575853136017
Epoch: 2026-06-19T14:13Z
TLE epoch observation values (Epoch: 2026-06-19T14:13:37.670Z)
Latitude
-0.00001°
Longitude
-116.56683°
Altitude
482.76 km
Speed
7.626 km/s
True Right ascension
00h 18m 38s
True Declination
0° 00' 00"
Sunlit
Object was in daylight at epoch
Visualization orbit readout
Latitude
Unknown
Longitude
Unknown
Altitude
Unknown
Speed
Unknown
Apparent Right ascension
Unknown
Apparent Declination
Unknown
Sunlit
N/A
Visualization observer readout
Local Sidereal Time
21:25:14
Azimuth
Unknown
Elevation
Unknown
Doppler factor
Unknown
Orbital elements
Apogee altitude
485.768 km
Perigee altitude
484.244 km
Semi-major axis
6,863.143 km
Eccentricity
0.00011
Inclination
43.0041°
RAAN
4.6597°
Arg. of periapsis
275.8975°
True anomaly
84.18767°
Mean anomaly
84.175°
Eccentric anomaly
84.18133°
Mean motion
3.81732 °/min
Orbital period
94.31 mins
BSTAR
0.0000056092
Loading maneuver chart data...
Computing Atmospheric mass density...
Loading historical data...
Loading historical data...
Loading historical data...
Loading historical data...
Loading historical data...
Loading historical data...
Loading historical data...

Documentation

Showing up to 5 results
|